York, PA

7:17 AM EDT on August 21, 2017 (GMT -0400)
York

Weather History for KTHV - March, 2013

Change the Weather History Date:

Tuesday, March 12, 2013

  Actual Average Record
Temperature  
Mean Temperature 46 °F -  
Max Temperature 54 °F 0 °F 71 °F (2012)
Min Temperature 37 °F - 12 °F (2017)
Degree Days  
Heating Degree Days 18    
Moisture  
Dew Point 45 °F    
Average Humidity 81    
Maximum Humidity 94    
Minimum Humidity 56    
Precipitation  
Precipitation 1.19 in - - ()
Sea Level Pressure  
Sea Level Pressure 29.80 in    
Wind  
Wind Speed 9 mph (West)    
Max Wind Speed 18 mph    
Max Gust Speed 25 mph    
Visibility 6 miles    
Events Fog , Rain    
Averages and records for this station are not official NWS values.
T = Trace of Precipitation, MM = Missing Value Source: NWS Daily Summary

Daily Weather History Graph

Daily Weather History Graph

Search for Another Location

Airport or City:

Trip Planner

Search our weather history database for the weather conditions in past years. The results will help you decide how hot, cold, wet, or windy it might be!

Date:

Astronomy

Mar. 12, 2013 Rise Set
Actual Time 7:23 AM EDT 7:11 PM EDT
Civil Twilight 6:56 AM EDT 7:38 PM EDT
Nautical Twilight 6:25 AM EDT 8:09 PM EDT
Astronomical Twilight 5:53 AM EDT 8:41 PM EDT
Moon 7:28 AM EDT (3/12) 8:24 PM EDT (3/12)
Length of Visible Light 12h 42m
Length of Day
11h 48m
New Moon, 1% of the Moon is Illuminated
Mar 12
New Moon
Mar 19
First Quarter
Mar 27
Full
Apr 3
Last Quarter
Apr 10
New

Hourly Weather History & Observations

Time (EDT) Temp. Windchill Dew Point Humidity Pressure Visibility Wind Dir Wind Speed Gust Speed Precip Events Conditions
12:53 AM 52.0 °F - 46.0 °F 80% 29.88 in 9.0 mi SSE 16.1 mph 21.9 mph 0.00 in Rain Light Rain
1:53 AM 53.1 °F - 46.0 °F 77% 29.88 in 10.0 mi SSE 11.5 mph 25.3 mph 0.01 in Rain Light Rain
2:53 AM 52.0 °F - 46.9 °F 83% 29.87 in 10.0 mi SSE 6.9 mph - 0.01 in Rain Light Rain
3:53 AM 53.1 °F - 46.9 °F 80% 29.83 in 10.0 mi South 8.1 mph 19.6 mph 0.00 in   Overcast
4:53 AM 53.1 °F - 46.9 °F 80% 29.82 in 10.0 mi South 8.1 mph 19.6 mph N/A   Overcast
5:53 AM 54.0 °F - 48.0 °F 80% 29.81 in 10.0 mi South 9.2 mph 19.6 mph N/A   Overcast
6:53 AM 54.0 °F - 48.9 °F 83% 29.80 in 9.0 mi South 10.4 mph 20.7 mph 0.01 in Rain Light Rain
7:19 AM 53.6 °F - 48.2 °F 82% 29.79 in 5.0 mi South 8.1 mph - 0.04 in Rain Rain
7:53 AM 53.1 °F - 50.0 °F 89% 29.80 in 4.0 mi Variable 3.5 mph - 0.17 in Rain Heavy Rain
8:09 AM 53.6 °F - 50.0 °F 88% 29.77 in 4.0 mi SSE 6.9 mph - 0.05 in Rain Rain
8:53 AM 53.1 °F - 50.0 °F 89% 29.76 in 4.0 mi SSE 10.4 mph - 0.19 in Rain Rain
9:42 AM 53.6 °F - 51.8 °F 94% 29.75 in 2.0 mi SSW 5.8 mph - 0.12 in Rain Heavy Rain
9:53 AM 54.0 °F - 51.1 °F 90% 29.76 in 2.0 mi SW 3.5 mph - 0.18 in Rain Heavy Rain
10:03 AM 53.6 °F - 51.8 °F 94% 29.75 in 1.8 mi Calm Calm - 0.05 in Rain Heavy Rain
10:13 AM 53.6 °F - 51.8 °F 94% 29.75 in 0.8 mi West 4.6 mph - 0.13 in Rain Heavy Rain
10:23 AM 53.6 °F - 51.8 °F 94% 29.75 in 0.5 mi Calm Calm - 0.29 in Fog , Rain Heavy Rain
10:26 AM 53.6 °F - 51.8 °F 94% 29.75 in 0.5 mi Calm Calm - 0.32 in Fog , Rain Heavy Rain
10:35 AM 53.6 °F - 51.8 °F 94% 29.74 in 1.2 mi Calm Calm - 0.36 in Rain Rain
10:40 AM 53.6 °F - 51.8 °F 94% 29.74 in 2.0 mi Calm Calm - 0.38 in Rain Rain
10:42 AM 53.6 °F - 51.8 °F 94% 29.74 in 3.0 mi ESE 3.5 mph - 0.38 in Rain Rain
10:53 AM 53.1 °F - 51.1 °F 93% 29.75 in 3.0 mi SE 4.6 mph - 0.41 in Rain Rain
11:16 AM 53.6 °F - 51.8 °F 94% 29.75 in 2.0 mi Calm Calm - 0.07 in Rain Heavy Rain
11:30 AM 53.6 °F - 51.8 °F 94% 29.74 in 1.8 mi Calm Calm - 0.12 in Rain Heavy Rain
11:35 AM 53.6 °F - 51.8 °F 94% 29.74 in 2.0 mi Calm Calm - 0.14 in Rain Rain
11:45 AM 53.6 °F - 51.8 °F 94% 29.75 in 2.5 mi WNW 3.5 mph - 0.16 in Rain Rain
11:53 AM 54.0 °F - 52.0 °F 93% 29.75 in 4.0 mi WNW 5.8 mph - 0.17 in Rain Light Rain
12:19 PM 51.8 °F - 48.2 °F 88% 29.75 in 10.0 mi WNW 12.7 mph - 0.01 in Rain Light Rain
12:26 PM 51.8 °F - 48.2 °F 88% 29.76 in 5.0 mi WNW 12.7 mph - 0.02 in Rain Rain
12:53 PM 51.1 °F - 46.9 °F 86% 29.77 in 10.0 mi WNW 10.4 mph - 0.04 in   Overcast
1:03 PM 51.8 °F - 46.4 °F 82% 29.75 in 10.0 mi WNW 13.8 mph - N/A   Overcast
1:53 PM 51.1 °F - 46.0 °F 83% 29.78 in 10.0 mi WNW 11.5 mph 19.6 mph N/A   Overcast
2:00 PM 51.8 °F - 44.6 °F 76% 29.77 in 10.0 mi WNW 12.7 mph - N/A   Overcast
2:53 PM 52.0 °F - 42.1 °F 69% 29.78 in 10.0 mi WNW 16.1 mph 23.0 mph N/A   Overcast
3:41 PM 51.8 °F - 39.2 °F 62% 29.77 in 10.0 mi WNW 13.8 mph - N/A   Mostly Cloudy
3:53 PM 52.0 °F - 39.0 °F 61% 29.78 in 10.0 mi WNW 17.3 mph 24.2 mph N/A   Scattered Clouds
4:53 PM 48.9 °F - 36.0 °F 61% 29.82 in 10.0 mi WNW 18.4 mph 24.2 mph N/A   Partly Cloudy
5:53 PM 48.0 °F - 33.1 °F 56% 29.84 in 10.0 mi WNW 15.0 mph 23.0 mph N/A   Partly Cloudy
6:53 PM 46.0 °F 40.2 °F 32.0 °F 58% 29.88 in 10.0 mi WNW 12.7 mph 19.6 mph N/A   Overcast
7:53 PM 43.0 °F 36.0 °F 30.0 °F 60% 29.91 in 10.0 mi NW 13.8 mph 18.4 mph N/A   Partly Cloudy
8:53 PM 43.0 °F 38.2 °F 30.0 °F 60% 29.92 in 10.0 mi NW 8.1 mph - N/A   Overcast
9:53 PM 42.1 °F 34.5 °F 28.0 °F 58% 29.93 in 10.0 mi NW 15.0 mph - N/A   Overcast
10:53 PM 39.9 °F 32.9 °F 27.0 °F 60% 29.95 in 10.0 mi NW 11.5 mph 19.6 mph N/A   Overcast
11:53 PM 37.9 °F 32.7 °F 27.0 °F 65% 29.96 in 10.0 mi NW 6.9 mph - N/A   Partly Cloudy